Regional Weather Roundup
Issued by NWS

Home | Current Version | Previous Version | Graphics & Text | Print | Product List | Glossary On
Versions: 1 2 3 4 5 6 7 8 9 10 11 12 13 14 15 16 17 18 19 20 21 22 23 24 25 26 27 28 29 30 31 32 33 34 35 36 37 38 39 40 41 42 43 44 45 46 47 48 49 50
000
ASUS45 KPSR 230410
RWRAZ

ARIZONA REGIONAL HOURLY WEATHER ROUNDUP
NATIONAL WEATHER SERVICE PHOENIX AZ
900 PM MST FRI AUG 22 2014

NOTE: FAIR INDICATES FEW OR NO CLOUDS BELOW 12,000 FEET WITH NO
SIGNIFICANT WEATHER AND/OR OBSTRUCTIONS TO VISIBILITY.

AZZ001>003-036-230500-
NORTHWEST ARIZONA

CITY           SKY/WX    TMP DP  RH WIND       PRES   REMARKS
BULLHEAD CITY  CLEAR     91  54  27 S13       29.82R
KINGMAN        CLEAR     73  54  51 S9        30.01R
$$

AZZ004>008-015-016-018-230500-
NORTH CENTRAL ARIZONA

CITY           SKY/WX    TMP DP  RH WIND       PRES   REMARKS
GRAND CANYON     N/A    N/A N/A N/A MISG        N/A
WILLIAMS       CLEAR     57  50  77 S7        30.27S
PRESCOTT       CLEAR     65  51  60 S6        30.13R
FLAGSTAFF      CLEAR     56  49  77 W5        30.24S
PAYSON         CLEAR     66  52  59 W5        30.16R
PAGE           CLEAR     78  48  34 SW3       29.97R
$$

AZZ009>014-017-230500-
NORTHEAST ARIZONA

CITY           SKY/WX    TMP DP  RH WIND       PRES   REMARKS
WINSLOW        CLEAR     68  53  58 SW7       30.10R
SAINT JOHNS    CLEAR     63  50  62 S5        30.16R
WINDOW ROCK    MOCLDY    62  46  55 S6        30.21R
SHOW LOW       CLEAR     57  48  72 S8        30.24R
$$

AZZ023-230500-
GREATER PHOENIX AREA

CITY           SKY/WX    TMP DP  RH WIND       PRES   REMARKS
PHOENIX        CLEAR     89  57  33 NW6       29.87R
BUCKEYE          N/A     82  64  54 CALM      29.88R
LUKE AFB       NOT AVBL
DEER VALLEY    CLEAR     85  58  39 CALM      29.90R
SCOTTSDALE     CLEAR     85  58  39 CALM      29.92R
MESA-GATEWAY   PTCLDY    84  55  37 CALM      29.92R
CHANDLER       CLEAR     86  57  37 CALM      29.89R
$$

AZZ027-028-230500-
SOUTHWEST MARICOPA COUNTY AND PINAL COUNTY

CITY           SKY/WX    TMP DP  RH WIND       PRES   REMARKS
CASA GRANDE    CLEAR     84  55  37 CALM      29.91R
GILA BEND      CLEAR     84  64  51 SW1       29.88R
$$

AZZ503-504-507>509-230500-
SOUTHEAST ARIZONA

CITY           SKY/WX    TMP DP  RH WIND       PRES   REMARKS
TUCSON         PTCLDY    83  60  45 SW8       30.00R
DAVIS-MONTHAN  MOCLDY    82  60  46 W5        29.99R
NOGALES        CLEAR     69  62  78 E5        30.09R
SIERRA VISTA   PTCLDY    68  64  88 S3        30.15R
DOUGLAS        PTCLDY    68  64  87 SE5       30.12R
SAFFORD        MOCLDY    79  53  40 NW7       29.99R
$$

AZZ020-021-025-026-031-230500-
SOUTHWEST ARIZONA

CITY           SKY/WX    TMP DP  RH WIND       PRES   REMARKS
YUMA           PTCLDY    91  57  31 SW6       29.82R
$$

CAZ031-033-041-043-047-048-061-230500-
SOUTHERN CALIFORNIA

CITY           SKY/WX    TMP DP  RH WIND       PRES   REMARKS
DOWNTOWN L.A.  CLOUDY    70  63  78 CALM      29.94R
L.A. AIRPORT   CLOUDY    69  63  81 SW9       29.95R
SAN DIEGO      PTCLDY    71  63  75 NW7       29.96R
BURBANK        CLEAR     68  62  81 S7        29.95R
ONTARIO        CLEAR     74  61  63 W13       29.94R
RIVERSIDE      CLEAR     73  59  61 W7        29.94R
PALM SPRINGS   CLEAR     90  53  28 N8        29.84R
EL CENTRO NAS  CLEAR     87  50  27 W17       29.81R
IMPERIAL       CLEAR     84  55  36 W13       29.80R
BLYTHE         CLEAR     88  65  46 CALM      29.81R
NEEDLES        CLEAR     90  53  28 S8        29.83R
$$

NVZ020-UTZ003-230500-
SOUTHERN NEVADA-UTAH

CITY           SKY/WX    TMP DP  RH WIND       PRES   REMARKS
LAS VEGAS      CLEAR     87  51  28 S20G28    29.79R
SALT LAKE CITY CLOUDY    60  56  86 CALM      29.98F
$$

NMZ009-TXZ055-230500-
NEW MEXICO-WEST TEXAS

CITY           SKY/WX    TMP DP  RH WIND       PRES   REMARKS
ALBUQUERQUE    PTCLDY    61  55  81 SW5       30.16S
EL PASO        LGT RAIN  75  61  61 SW8       30.09R
$$


........................KEY........................
SKY/WX - SKY CONDITION/WEATHER
TMP    - TEMPERATURE IN FAHRENHEIT
DP     - DEW POINT IN FAHRENHEIT
RH     - RELATIVE HUMIDITY IN PERCENT
WIND   - DIRECTION AND SPEED IN MILES PER HOUR (MPH)
VRB    - VARIABLE WIND DIRECTION
PRES   - MEAN SEA LEVEL PRESSURE IN INCHES OF MERCURY
         F - FALLING PRESSURE   R - RISING PRESSURE
         S - STEADY PRESSURE
VSB    - VISIBILITY IN MILES
HX     - HEAT INDEX IN FAHRENHEIT
WCI    - WIND CHILL INDEX IN FAHRENHEIT
TC     - TEMPERATURE IN CELSIUS WHICH IS ALSO KNOWN AS
         TEMPERATURE IN CENTIGRADE
AFB    - AIR FORCE BASE
         LUKE AFB IS LUKE AIR FORCE BASE
         DAVIS-MONTHAN IS DAVIS-MONTHAN AIR FORCE BASE
NAS    - NAVAL AIR STATION
         EL CENTRO NAS IS EL CENTRO NAVAL AIR STATION
N/A    - NOT AVAILABLE


USA.gov is the U.S. government's official web portal to all federal, state and local government web resources and services.